Weather in Agalatovo

Russia / Saint-Petersburg and Leningrad Oblast     60°13′08″N   30°17′01″E
temp.,
°C
wind,
m/s
gust,
m/s
humid.,
%
clouds,
%
prec.,
mm/h
press.,
hPa
HPBL,
m
16 april, fri
fri1600:00+2ene4126921 0.0 1030378
03:00+1ne4118397 0.0 1030295
06:000ne412855 0.0 1030320
09:00+4ene5126460 0.0 1031597
12:00+7ene6124830 0.0 1031723
15:00+9ene6114613 0.0 1030836
18:00+8ne5115366 0.0 1030732
21:00+5ene513685 0.0 1031426
17 april, sat
sat1700:00+3ene4138349 0.0 1031372
03:00+2ene411895 0.0 1031283
06:00+1ne411905 0.0 1031247
09:00+5ene512685 0.0 1032429
12:00+8ene611525 0.0 1032628
15:00+10ene69465 0.0 1031819
18:00+9ne510545 0.0 1031653
21:00+6ne412715 0.0 1031356
18 april, sun
sun1800:00+4ene311835 0.0 1031310
03:00+3ne39905 0.0 1032228
06:00+2ne39925 0.0 1031204
09:00+6ene48715 0.0 1031359
12:00+9ene58560 0.0 1031806
15:00+11ene58505 0.0 10301146
18:00+10ne4956100 0.0 1030894
21:00+7ene41172100 0.0 1031334
19 april, mon
mon1900:00+4ne298413 0.0 1031181
03:00+3ne269273 0.0 1031108
06:00+3ne279456 0.0 1031141
09:00+7ene3774100 0.0 1031365
12:00+9ene476196 0.0 1030744
15:00+10ene465330 0.0 1029901
18:00+10ene46535 0.0 1028620
21:00+5ne396916 0.0 1027208
20 april, tue
tue2000:00+6e2575100 0.0 1027151
03:00+6e267923 0.0 1026154
06:00+4ene278068 0.0 1025126
09:00+7e376399 0.0 1023445
12:00+9e4653100 0.0 10221327
15:00+10ene454516 0.0 10201529
18:00+9ene464570 0.0 1018890
21:00+5ne396399 0.0 1016241